Location: Sungai Bunut
(2.6333°N, 113.7333°E)
Time: 21:17:48
(UTC+00:00)

Vanguard 1 - Pass Details

Date: 05 December 2023
Orbit: 653 x 3826 km, 34.3° (Epoch: 28 February)

Event Time Altitude Azimuth Distance (km) Brightness Sun altitude
Rises 15:05:09 0° 314° (NW) 7,679 14.6 -63.9°
Reaches altitude 10° 15:11:07 10° 322° (NW) 6,842 14.2 -64.8°
Enters shadow 15:12:28 12° 324° (NW) 6,657 14.1 -65.0°
